Flag for Guatemala Weather past 2 weeks in Guatemala, Guatemala

Now
73 °F

Partly sunny.


Feels Like: 76 °F
Forecast: 63 / 76 °F
Wind: 5 mph from Southwest

Location: Guatemala Aeropuertola Aurora

Current Time: Sep 22, 2014 at 10:58:42 AM

Latest Report: Sep 22, 2014 at 10:00 AM


Visibility: N/A

Pressure: 30.30 "Hg

Humidity: 65%

Dew point: 61 °F

Location of GuatemalaLocation

Historic Weather in Guatemala — Graph

°F

Guatemala temperature yesterday

Maximum temperature yesterday: 79 °F (at 1:00 PM)
Minimum temperature yesterday: 63 °F (at 6:00 AM)
Average temperature yesterday: 68 °F

Past Weeks' High & Low Weather Summary

 TemperatureHumidityPressure
High81 °F (Sep 18, 1:00 PM)100% (Sep 7, 11:00 PM)30.36 "Hg (Sep 7, 11:00 PM)
Low61 °F (Sep 8, 2:00 AM)45% (Sep 18, 2:00 PM)30.12 "Hg (Sep 11, 4:00 PM)
Average67 °F86%30.24 "Hg
* Reported Sep 7 10:00 AM — Sep 22 10:00 AM, Guatemala, Weather by CustomWeather, © 2014

Note: Actual official high and low records may vary slightly from our data, if they occured in-between our weather recording intervals... More about our weather records

Advertising

Guatemala weather history for previous 24 hours

 ConditionsComfort  
Time TempWeatherWind HumidityBarometerVisibility
10:00 AM
Sep 22
73 °FPartly sunny.5 mph65%30.30 "HgN/A
9:00 AM68 °FPartly sunny.No wind83%30.33 "Hg5 mi
8:00 AM64 °FPartly sunny.No wind88%30.30 "Hg4 mi
7:00 AM61 °FScattered clouds.No wind94%30.30 "Hg4 mi
6:00 AM63 °FFog.No wind94%30.30 "Hg2 mi
5:00 AM63 °FPassing clouds.No wind100%30.30 "Hg4 mi
4:00 AM63 °FPassing clouds.No wind100%30.27 "Hg4 mi
3:00 AM63 °FPassing clouds.No wind100%30.27 "Hg5 mi
2:00 AM64 °FPassing clouds.No wind94%30.27 "HgN/A
1:00 AM64 °FPassing clouds.No wind94%30.30 "HgN/A
12:00 AM64 °FPassing clouds.No wind94%30.33 "HgN/A
11:00 PM
Sep 21
64 °FPassing clouds.5 mph94%30.33 "HgN/A
10:00 PM64 °FPartly cloudy.No wind94%30.33 "Hg5 mi
9:00 PM64 °FPartly cloudy.No wind94%30.30 "Hg4 mi
8:00 PM64 °FPartly cloudy.5 mph100%30.30 "Hg5 mi
7:00 PM66 °FPartly cloudy.5 mph88%30.27 "HgN/A
6:00 PM66 °FPartly cloudy.9 mph94%30.24 "HgN/A
5:00 PM66 °FLight rain. Broken clouds.7 mph94%30.21 "Hg5 mi
4:00 PM70 °FThundershowers. Broken clouds.14 mph83%30.21 "HgN/A
3:20 PMN/AThunderstorms.12 mphN/AN/AN/A
3:00 PM73 °FLight rain. Broken clouds.12 mph69%30.18 "HgN/A
2:00 PM79 °FScattered clouds.14 mph58%30.21 "HgN/A
1:00 PM79 °FScattered clouds.16 mph58%30.24 "HgN/A
12:00 PM77 °FBroken clouds.14 mph57%30.27 "HgN/A
11:00 AM77 °FBroken clouds.14 mph54%30.30 "HgN/A
10:00 AM73 °FScattered clouds.7 mph65%N/AN/A
Weather by CustomWeather, © 2014

See weather overviewHow to use our weather pages